| time (UTC) | temp C | wind direction | speed KPH | gust KPH | rain 1hr cm | rain 24hr cm | rain mn cm | humidity % | barometer mb |
| 20260506211336 | 16 | 292 | 3.2 | 6.4 | 0.00 | 0.30 | 0.30 | 88 | 1042.0 |
| 20260506210435 | 16 | 292 | 0.0 | 1.6 | 0.00 | 0.30 | 0.30 | 88 | 1042.0 |
| 20260506205438 | 16 | 284 | 3.2 | 6.4 | 0.00 | 0.30 | 0.30 | 88 | 1041.9 |
| 20260506204436 | 16 | 244 | 6.4 | 12.9 | 0.00 | 0.30 | 0.30 | 88 | 1041.9 |
| 20260506203435 | 16 | 246 | 12.9 | 17.7 | 0.00 | 0.30 | 0.30 | 87 | 1041.7 |
| 20260506202437 | 16 | 242 | 16.1 | 20.9 | 0.00 | 0.30 | 0.30 | 88 | 1041.7 |
| 20260506201435 | 16 | 243 | 11.3 | 14.5 | 0.00 | 0.30 | 0.30 | 88 | 1041.6 |
| 20260506200438 | 16 | 243 | 9.7 | 12.9 | 0.00 | 0.30 | 0.30 | 89 | 1041.7 |
| 20260506195437 | 16 | 236 | 9.7 | 14.5 | 0.00 | 0.30 | 0.30 | 89 | 1041.8 |
| 20260506194438 | 16 | 240 | 12.9 | 17.7 | 0.00 | 0.30 | 0.30 | 89 | 1041.9 |
| 20260506193437 | 16 | 226 | 8.0 | 14.5 | 0.00 | 0.30 | 0.30 | 89 | 1042.1 |
| 20260506192435 | 16 | 235 | 8.0 | 12.9 | 0.00 | 0.30 | 0.30 | 89 | 1042.1 |
| 20260506185538 | 15 | 255 | 14.5 | 17.7 | 0.00 | 0.30 | 0.30 | 92 | 1042.4 |
| 20260506184537 | 15 | 219 | 11.3 | 16.1 | 0.00 | 0.30 | 0.30 | 92 | 1042.6 |
| 20260506184437 | 15 | 228 | 6.4 | 11.3 | 0.00 | 0.30 | 0.30 | 92 | 1042.5 |
| 20260506183438 | 15 | 254 | 12.9 | 19.3 | 0.03 | 0.30 | 0.30 | 89 | 1042.5 |
| 20260506182536 | 15 | 243 | 14.5 | 19.3 | 0.03 | 0.30 | 0.30 | 88 | 1042.5 |
| 20260506180634 | 15 | 234 | 12.9 | 22.5 | 0.03 | 0.30 | 0.30 | 90 | 1042.6 |
| 20260506175637 | 15 | 236 | 19.3 | 24.1 | 0.05 | 0.30 | 0.30 | 89 | 1042.6 |
| 20260506174637 | 15 | 237 | 19.3 | 29.0 | 0.05 | 0.30 | 0.30 | 89 | 1042.5 |
| 20260506173636 | 16 | 226 | 19.3 | 27.4 | 0.05 | 0.30 | 0.30 | 88 | 1042.7 |
| 20260506172638 | 16 | 226 | 14.5 | 20.9 | 0.05 | 0.28 | 0.28 | 88 | 1042.8 |
| 20260506170635 | 16 | 234 | 17.7 | 24.1 | 0.08 | 0.28 | 0.28 | 88 | 1042.9 |
| 20260506164738 | 15 | 235 | 12.9 | 19.3 | 0.10 | 0.25 | 0.25 | 89 | 1043.0 |
| 20260506163837 | 15 | 213 | 14.5 | 22.5 | 0.13 | 0.25 | 0.25 | 89 | 1042.6 |
| 20260506162936 | 15 | 215 | 9.7 | 16.1 | 0.13 | 0.23 | 0.23 | 88 | 1042.5 |
| 20260506161936 | 16 | 236 | 19.3 | 27.4 | 0.15 | 0.23 | 0.23 | 88 | 1042.7 |
| 20260506160935 | 16 | 215 | 17.7 | 29.0 | 0.15 | 0.20 | 0.20 | 87 | 1043.3 |
| 20260506155938 | 16 | 228 | 9.7 | 14.5 | 0.13 | 0.18 | 0.18 | 88 | 1043.7 |
| 20260506154937 | 16 | 224 | 22.5 | 30.6 | 0.13 | 0.15 | 0.15 | 88 | 1043.9 |
| 20260506153937 | 16 | 221 | 16.1 | 20.9 | 0.13 | 0.13 | 0.13 | 88 | 1044.1 |
| 20260506152939 | 16 | 219 | 12.9 | 22.5 | 0.10 | 0.10 | 0.10 | 87 | 1044.1 |
| 20260506151936 | 16 | 236 | 9.7 | 12.9 | 0.08 | 0.08 | 0.08 | 86 | 1044.1 |
| 20260506150936 | 16 | 217 | 9.7 | 12.9 | 0.05 | 0.05 | 0.05 | 85 | 1043.7 |
| 20260506150035 | 16 | 225 | 9.7 | 12.9 | 0.05 | 0.05 | 0.05 | 82 | 1043.9 |
| 20260506145052 | 17 | 226 | 14.5 | 20.9 | 0.03 | 0.03 | 0.03 | 80 | 1043.8 |
| 20260506144135 | 17 | 221 | 14.5 | 19.3 | 0.00 | 0.00 | 0.00 | 78 | 1044.0 |
| 20260506143136 | 17 | 236 | 20.9 | 29.0 | 0.00 | 0.00 | 0.00 | 75 | 1044.2 |
| 20260506142236 | 18 | 246 | 16.1 | 27.4 | 0.00 | 0.00 | 0.00 | 73 | 1044.2 |
| 20260506141238 | 18 | 228 | 19.3 | 27.4 | 0.00 | 0.00 | 0.00 | 72 | 1043.9 |
| 20260506140237 | 18 | 226 | 17.7 | 24.1 | 0.00 | 0.00 | 0.00 | 73 | 1043.9 |
| 20260506135336 | 18 | 226 | 14.5 | 22.5 | 0.00 | 0.00 | 0.00 | 73 | 1043.7 |
| 20260506133435 | 18 | 255 | 17.7 | 25.7 | 0.00 | 0.00 | 0.00 | 72 | 1044.0 |
| 20260506132436 | 18 | 225 | 20.9 | 30.6 | 0.00 | 0.00 | 0.00 | 72 | 1044.1 |
| 20260506131435 | 18 | 225 | 12.9 | 17.7 | 0.00 | 0.00 | 0.00 | 72 | 1044.2 |
| 20260506130535 | 18 | 232 | 16.1 | 27.4 | 0.00 | 0.00 | 0.00 | 72 | 1044.2 |
| 20260506125536 | 18 | 232 | 12.9 | 19.3 | 0.00 | 0.00 | 0.00 | 72 | 1044.2 |
| 20260506124539 | 18 | 223 | 16.1 | 20.9 | 0.00 | 0.00 | 0.00 | 72 | 1044.1 |
| 20260506122537 | 18 | 237 | 17.7 | 24.1 | 0.00 | 0.00 | 0.00 | 73 | 1043.7 |
| 20260506121635 | 17 | 215 | 14.5 | 22.5 | 0.00 | 0.00 | 0.00 | 73 | 1044.1 |
| 20260506120635 | 17 | 235 | 14.5 | 22.5 | 0.00 | 0.00 | 0.00 | 73 | 1044.1 |
| 20260506115636 | 17 | 223 | 16.1 | 24.1 | 0.00 | 0.00 | 0.00 | 73 | 1044.0 |
| 20260506114636 | 17 | 223 | 17.7 | 22.5 | 0.00 | 0.00 | 0.00 | 74 | 1043.7 |
| 20260506113637 | 17 | 212 | 17.7 | 24.1 | 0.00 | 0.00 | 0.00 | 74 | 1043.9 |
| 20260506111736 | 17 | 218 | 16.1 | 19.3 | 0.00 | 0.00 | 0.00 | 74 | 1044.1 |
| 20260506110835 | 17 | 218 | 16.1 | 25.7 | 0.00 | 0.00 | 0.00 | 74 | 1044.1 |
| 20260506105837 | 17 | 219 | 17.7 | 24.1 | 0.00 | 0.00 | 0.00 | 74 | 1044.0 |
| 20260506104835 | 17 | 217 | 17.7 | 29.0 | 0.00 | 0.00 | 0.00 | 74 | 1043.7 |
| 20260506104738 | 17 | 204 | 17.7 | 27.4 | 0.00 | 0.00 | 0.00 | 74 | 1043.7 |
| 20260506103738 | 17 | 218 | 19.3 | 24.1 | 0.00 | 0.00 | 0.00 | 74 | 1043.8 |
| 20260506102736 | 17 | 221 | 14.5 | 19.3 | 0.00 | 0.00 | 0.00 | 74 | 1043.6 |
| 20260506100736 | 17 | 203 | 12.9 | 17.7 | 0.00 | 0.00 | 0.00 | 74 | 1043.9 |
| 20260506095738 | 17 | 223 | 12.9 | 24.1 | 0.00 | 0.03 | 0.00 | 74 | 1044.0 |
| 20260506094835 | 17 | 224 | 12.9 | 24.1 | 0.00 | 0.03 | 0.00 | 74 | 1043.7 |
| 20260506093835 | 18 | 223 | 19.3 | 29.0 | 0.00 | 0.03 | 0.00 | 73 | 1043.9 |
| 20260506092838 | 18 | 214 | 8.0 | 17.7 | 0.00 | 0.03 | 0.00 | 73 | 1043.7 |
| 20260506091935 | 18 | 221 | 6.4 | 11.3 | 0.00 | 0.03 | 0.00 | 72 | 1043.7 |
| 20260506090935 | 18 | 242 | 3.2 | 9.7 | 0.00 | 0.13 | 0.00 | 71 | 1043.9 |
| 20260506085937 | 18 | 218 | 8.0 | 14.5 | 0.00 | 0.23 | 0.00 | 71 | 1043.9 |
| 20260506084936 | 18 | 216 | 12.9 | 17.7 | 0.00 | 0.23 | 0.00 | 71 | 1043.9 |
| 20260506083937 | 18 | 213 | 14.5 | 20.9 | 0.00 | 0.23 | 0.00 | 70 | 1044.1 |
| 20260506083035 | 18 | 223 | 3.2 | 6.4 | 0.00 | 0.23 | 0.00 | 70 | 1044.1 |
| 20260506082036 | 18 | 200 | 9.7 | 14.5 | 0.00 | 0.23 | 0.00 | 70 | 1044.1 |
| 20260506073138 | 18 | 221 | 14.5 | 24.1 | 0.00 | 0.23 | 0.00 | 66 | 1044.1 |
| 20260506071139 | 19 | 213 | 14.5 | 19.3 | 0.00 | 0.23 | 0.00 | 65 | 1044.2 |
| 20260506070235 | 19 | 227 | 17.7 | 25.7 | 0.00 | 0.23 | 0.00 | 64 | 1044.2 |
| 20260506062337 | 19 | 222 | 11.3 | 16.1 | 0.00 | 0.23 | 0.00 | 61 | 1044.7 |
| 20260506061337 | 19 | 214 | 12.9 | 17.7 | 0.00 | 0.23 | 0.00 | 62 | 1044.7 |
| 20260506060435 | 19 | 221 | 14.5 | 19.3 | 0.00 | 0.23 | 0.00 | 61 | 1044.8 |
| 20260506050537 | 20 | 228 | 11.3 | 14.5 | 0.00 | 0.23 | 0.00 | 60 | 1045.1 |
| 20260506044636 | 20 | 226 | 17.7 | 27.4 | 0.00 | 0.23 | 0.00 | 59 | 1045.1 |
| 20260506041835 | 20 | 228 | 16.1 | 22.5 | 0.00 | 0.23 | 0.00 | 59 | 1045.0 |
| 20260506035850 | 20 | 227 | 20.9 | 29.0 | 0.00 | 0.23 | 0.23 | 59 | 1045.1 |
| 20260506034851 | 20 | 228 | 11.3 | 16.1 | 0.00 | 0.23 | 0.23 | 57 | 1045.1 |
| 20260506033850 | 20 | 196 | 12.9 | 17.7 | 0.00 | 0.23 | 0.23 | 56 | 1045.0 |
| 20260506032850 | 20 | 226 | 9.7 | 14.5 | 0.00 | 0.23 | 0.23 | 55 | 1044.9 |
| 20260506031849 | 20 | 209 | 12.9 | 22.5 | 0.00 | 0.23 | 0.23 | 53 | 1044.8 |
| 20260506030850 | 21 | 228 | 16.1 | 24.1 | 0.00 | 0.23 | 0.23 | 52 | 1045.0 |
| 20260506025851 | 21 | 196 | 8.0 | 12.9 | 0.00 | 0.23 | 0.23 | 50 | 1044.9 |
| 20260506023048 | 22 | 230 | 9.7 | 12.9 | 0.00 | 0.23 | 0.23 | 46 | 1045.0 |
| 20260506022050 | 22 | 226 | 9.7 | 14.5 | 0.00 | 0.23 | 0.23 | 45 | 1045.0 |
| 20260506021050 | 22 | 232 | 17.7 | 24.1 | 0.00 | 0.23 | 0.23 | 44 | 1044.8 |
| 20260506015149 | 22 | 226 | 12.9 | 19.3 | 0.00 | 0.23 | 0.23 | 44 | 1044.9 |
| 20260506014248 | 22 | 215 | 9.7 | 17.7 | 0.00 | 0.23 | 0.23 | 43 | 1044.8 |
| 20260506013251 | 23 | 226 | 14.5 | 19.3 | 0.00 | 0.23 | 0.23 | 42 | 1044.7 |
| 20260506012349 | 23 | 217 | 22.5 | 33.8 | 0.00 | 0.23 | 0.23 | 42 | 1044.6 |
| 20260506005451 | 23 | 212 | 9.7 | 16.1 | 0.00 | 0.23 | 0.23 | 43 | 1044.2 |
| 20260506004448 | 23 | 217 | 12.9 | 16.1 | 0.00 | 0.23 | 0.23 | 42 | 1044.2 |
| 20260506003450 | 23 | 222 | 17.7 | 24.1 | 0.00 | 0.23 | 0.23 | 41 | 1043.9 |
| 20260506002549 | 23 | 225 | 16.1 | 24.1 | 0.00 | 0.23 | 0.23 | 39 | 1043.7 |
| 20260506001550 | 23 | 220 | 12.9 | 17.7 | 0.00 | 0.23 | 0.23 | 38 | 1043.7 |
| 20260506000549 | 24 | 227 | 22.5 | 32.2 | 0.00 | 0.23 | 0.23 | 37 | 1043.8 |
| 20260505235649 | 24 | 227 | 16.1 | 22.5 | 0.00 | 0.23 | 0.23 | 36 | 1043.6 |
| 20260505234652 | 25 | 228 | 20.9 | 25.7 | 0.00 | 0.23 | 0.23 | 35 | 1043.5 |
| 20260505233748 | 25 | 230 | 19.3 | 25.7 | 0.00 | 0.23 | 0.23 | 35 | 1043.6 |
| 20260505232848 | 25 | 231 | 17.7 | 22.5 | 0.00 | 0.23 | 0.23 | 34 | 1043.5 |
| 20260505230851 | 25 | 224 | 20.9 | 32.2 | 0.00 | 0.23 | 0.23 | 32 | 1043.6 |
| 20260505225949 | 25 | 240 | 19.3 | 24.1 | 0.00 | 0.23 | 0.23 | 32 | 1043.3 |
| 20260505225048 | 26 | 241 | 22.5 | 32.2 | 0.00 | 0.23 | 0.23 | 31 | 1043.1 |
| 20260505224049 | 26 | 258 | 19.3 | 27.4 | 0.00 | 0.23 | 0.23 | 31 | 1043.3 |
| 20260505223052 | 26 | 227 | 25.7 | 35.4 | 0.00 | 0.23 | 0.23 | 32 | 1043.1 |
| 20260505221149 | 26 | 243 | 22.5 | 30.6 | 0.00 | 0.23 | 0.23 | 32 | 1042.8 |
| 20260505220148 | 26 | 241 | 20.9 | 29.0 | 0.00 | 0.23 | 0.23 | 32 | 1043.2 |
| 20260505215148 | 26 | 264 | 25.7 | 41.8 | 0.00 | 0.23 | 0.23 | 32 | 1043.2 |
| 20260505214150 | 26 | 236 | 14.5 | 20.9 | 0.00 | 0.23 | 0.23 | 32 | 1043.3 |
| 20260505213248 | 26 | 246 | 25.7 | 32.2 | 0.00 | 0.23 | 0.23 | 32 | 1043.3 |
| 20260505212348 | 26 | 226 | 32.2 | 45.1 | 0.00 | 0.23 | 0.23 | 32 | 1043.2 |